Weather History for Delta, CO

Change the Weather History Date:

Friday, July 26, 2013

  Actual Average (KMTJ) Record (KMTJ)
Temperature  
Mean Temperature 81 °F 74 °F  
Max Temperature 99 °F 90 °F 93 °F (1996)
Min Temperature 63 °F 58 °F 54 °F (2005)
Degree Days  
Heating Degree Days 0 0  
Month to date heating degree days 0  
Since 1 June heating degree days 39  
Since 1 July heating degree days 0  
Cooling Degree Days 16 9  
Month to date cooling degree days 226  
Year to date cooling degree days 378  
Since 1 June cooling degree days 361  
Growing Degree Days 31 (Base 50)    
Moisture  
Dew Point 42 °F    
Average Humidity 29    
Maximum Humidity 59    
Minimum Humidity 10    
Precipitation  
Precipitation 0.00 in 0.05 in 0.19 in (2001)
Month to date precipitation 0.77  
Year to date precipitation 5.84  
Sea Level Pressure  
Sea Level Pressure 30.19 in    
Wind  
Wind Speed 5 mph (NE)    
Max Wind Speed 13 mph    
Max Gust Speed 22 mph    
Visibility 9 miles    
Events      
T = Trace of Precipitation, MM = Missing Value Source: NWS Daily Summary

Daily Weather History Graph

Daily Weather History Graph

Search for Another Location

Airport:

Trip Planner

Search our weather history database for the weather conditions in past years. The results will help you decide how hot, cold, wet, or windy it might be!

Date:

Astronomy

Jul. 26, 2013 Rise Set
Actual Time 6:08 AM MDT 8:28 PM MDT
Civil Twilight 5:38 AM MDT 8:58 PM MDT
Nautical Twilight 5:01 AM MDT 9:35 PM MDT
Astronomical Twilight 4:20 AM MDT 10:16 PM MDT
Moon 10:48 PM MDT (7/26) 10:44 AM MDT (7/26)
Length of Visible Light 15h 20m
Length of Day
14h 19m
Waning Gibbous, 79% of the Moon is Illuminated
Jul 26
Waning Gibbous
Jul 29
Last Quarter
Aug 6
New
Aug 14
First Quarter
Aug 20
Full

Hourly Weather History & Observations

Time (MDT) Temp. Dew Point Humidity Pressure Visibility Wind Dir Wind Speed Gust Speed Precip Events Conditions
12:15 AM 75.0 °F 46.4 °F 36% 30.18 in 7.0 mi NE 5.8 mph - N/A   Clear
12:35 AM 72.9 °F 46.2 °F 39% 30.18 in 7.0 mi ESE 6.9 mph - N/A   Clear
12:55 AM 72.5 °F 44.2 °F 36% 30.19 in 7.0 mi East 5.8 mph - N/A   Clear
1:15 AM 71.2 °F 45.9 °F 40% 30.19 in 10.0 mi Calm Calm - N/A   Clear
1:35 AM 69.4 °F 47.8 °F 46% 30.19 in 10.0 mi ENE 3.5 mph - N/A   Clear
1:55 AM 68.7 °F 48.7 °F 49% 30.19 in 10.0 mi NNE 6.9 mph - N/A   Clear
2:15 AM 68.5 °F 49.3 °F 50% 30.20 in 7.0 mi NNE 6.9 mph - N/A   Clear
2:35 AM 68.0 °F 49.3 °F 51% 30.20 in 7.0 mi NNE 6.9 mph - N/A   Clear
2:55 AM 69.1 °F 47.3 °F 46% 30.20 in 7.0 mi East 3.5 mph - N/A   Clear
3:15 AM 67.6 °F 48.7 °F 51% 30.20 in 10.0 mi NNE 5.8 mph - N/A   Clear
3:35 AM 66.2 °F 46.6 °F 49% 30.20 in 10.0 mi ENE 4.6 mph - N/A   Clear
3:55 AM 65.7 °F 46.2 °F 49% 30.21 in 10.0 mi East 5.8 mph - N/A   Clear
4:15 AM 65.5 °F 46.4 °F 50% 30.22 in 7.0 mi Calm Calm - N/A   Clear
4:35 AM 63.7 °F 49.3 °F 59% 30.23 in 7.0 mi North 5.8 mph - N/A   Clear
4:55 AM 65.5 °F 48.2 °F 54% 30.23 in 10.0 mi North 8.1 mph - N/A   Clear
5:15 AM 65.3 °F 48.4 °F 54% 30.23 in 7.0 mi NNE 6.9 mph - N/A   Clear
5:35 AM 66.0 °F 46.8 °F 50% 30.23 in 7.0 mi ENE 5.8 mph - N/A   Clear
5:55 AM 65.3 °F 46.4 °F 50% 30.24 in 7.0 mi NE 5.8 mph - N/A   Clear
6:15 AM 64.6 °F 46.2 °F 51% 30.25 in 10.0 mi NNE 6.9 mph - N/A   Clear
6:35 AM 66.2 °F 45.7 °F 48% 30.25 in 7.0 mi East 4.6 mph - N/A   Clear
6:55 AM 66.4 °F 46.6 °F 49% 30.26 in 10.0 mi NE 5.8 mph - N/A   Clear
7:15 AM 68.0 °F 46.9 °F 47% 30.26 in 5.0 mi NNE 4.6 mph - N/A   Haze
7:35 AM 69.3 °F 47.5 °F 46% 30.27 in 7.0 mi NNE 4.6 mph - N/A   Clear
7:55 AM 70.9 °F 47.3 °F 43% 30.27 in 7.0 mi East 6.9 mph - N/A   Clear
8:15 AM 71.1 °F 47.3 °F 43% 30.28 in 5.0 mi East 4.6 mph - N/A   Haze
8:35 AM 72.7 °F 47.8 °F 41% 30.29 in 10.0 mi East 5.8 mph - N/A   Clear
8:55 AM 74.5 °F 47.3 °F 38% 30.29 in 7.0 mi East 3.5 mph - N/A   Clear
9:15 AM 75.6 °F 47.1 °F 36% 30.29 in 7.0 mi East 3.5 mph - N/A   Clear
9:35 AM 77.2 °F 46.8 °F 34% 30.28 in 10.0 mi Calm Calm - N/A   Clear
9:55 AM 77.7 °F 47.1 °F 34% 30.28 in 10.0 mi Calm Calm - N/A   Clear
10:15 AM 79.2 °F 46.4 °F 31% 30.27 in 10.0 mi SW 3.5 mph - N/A   Clear
10:35 AM 79.7 °F 46.8 °F 31% 30.27 in 10.0 mi Calm Calm - N/A   Clear
10:55 AM 81.3 °F 46.6 °F 29% 30.27 in 10.0 mi Calm Calm - N/A   Clear
11:15 AM 83.3 °F 48.0 °F 29% 30.26 in 10.0 mi Calm Calm - N/A   Clear
11:35 AM 84.4 °F 45.3 °F 25% 30.26 in 10.0 mi SSW 3.5 mph - N/A   Clear
11:55 AM 86.0 °F 45.0 °F 24% 30.25 in 10.0 mi Calm Calm - N/A   Clear
12:15 PM 87.4 °F 45.3 °F 23% 30.25 in 10.0 mi WSW 4.6 mph - N/A   Clear
12:35 PM 89.1 °F 44.1 °F 21% 30.23 in 7.0 mi ESE 3.5 mph - N/A   Clear
12:55 PM 89.6 °F 44.1 °F 20% 30.23 in 7.0 mi SW 3.5 mph - N/A   Clear
1:15 PM 90.9 °F 44.6 °F 20% 30.22 in 7.0 mi WSW 3.5 mph - N/A   Clear
1:35 PM 92.5 °F 43.5 °F 18% 30.21 in 10.0 mi SSW 5.8 mph - N/A   Clear
1:55 PM 94.3 °F 41.7 °F 16% 30.19 in 10.0 mi South 6.9 mph - N/A   Clear
2:15 PM 95.2 °F 41.0 °F 15% 30.18 in 10.0 mi SSE 6.9 mph - N/A   Clear
2:35 PM 95.2 °F 37.0 °F 13% 30.17 in 10.0 mi SSE 6.9 mph 16.1 mph N/A   Clear
2:55 PM 96.8 °F 37.2 °F 13% 30.16 in 10.0 mi South 9.2 mph - N/A   Clear
3:15 PM 96.4 °F 36.1 °F 12% 30.16 in 10.0 mi NE 3.5 mph - N/A   Clear
3:35 PM 97.7 °F 35.4 °F 11% 30.15 in 10.0 mi WSW 6.9 mph - N/A   Clear
3:55 PM 98.8 °F 34.7 °F 11% 30.14 in 10.0 mi West 12.7 mph 16.1 mph N/A   Clear
4:15 PM 97.0 °F 33.8 °F 11% 30.13 in 10.0 mi SW 9.2 mph 20.7 mph N/A   Clear
4:35 PM 99.5 °F 33.8 °F 10% 30.12 in 10.0 mi West 11.5 mph 21.9 mph N/A   Clear
4:55 PM 99.0 °F 33.8 °F 10% 30.11 in 10.0 mi WNW 6.9 mph 21.9 mph N/A   Clear
5:15 PM 98.1 °F 34.0 °F 11% 30.11 in 10.0 mi Calm Calm - N/A   Clear
5:35 PM 99.0 °F 34.2 °F 10% 30.10 in 10.0 mi West 9.2 mph - N/A   Clear
5:55 PM 96.4 °F 34.0 °F 11% 30.10 in 10.0 mi SSE 4.6 mph - N/A   Clear
6:15 PM 98.2 °F 32.5 °F 10% 30.10 in 10.0 mi NNW 11.5 mph 16.1 mph N/A   Clear
6:35 PM 97.5 °F 34.0 °F 11% 30.10 in 10.0 mi NW 8.1 mph 17.3 mph N/A   Clear
6:55 PM 96.8 °F 34.2 °F 11% 30.09 in 10.0 mi West 10.4 mph 17.3 mph N/A   Clear
7:15 PM 96.1 °F 33.4 °F 11% 30.09 in 10.0 mi WNW 10.4 mph - N/A   Clear
7:35 PM 95.4 °F 31.5 °F 10% 30.09 in 10.0 mi NW 8.1 mph - N/A   Clear
7:55 PM 94.1 °F 32.0 °F 11% 30.09 in 10.0 mi North 5.8 mph - N/A   Clear
8:15 PM 92.5 °F 32.0 °F 12% 30.10 in 10.0 mi NW 3.5 mph - N/A   Clear
8:35 PM 90.7 °F 33.4 °F 13% 30.10 in 10.0 mi West 3.5 mph - N/A   Clear
8:55 PM 88.7 °F 33.6 °F 14% 30.11 in 10.0 mi West 4.6 mph - N/A   Clear
9:15 PM 84.0 °F 38.1 °F 20% 30.11 in 10.0 mi Calm Calm - N/A   Clear
9:35 PM 83.5 °F 34.0 °F 17% 30.12 in 10.0 mi NE 10.4 mph - N/A   Clear
9:55 PM 79.2 °F 39.6 °F 24% 30.12 in 10.0 mi NNE 9.2 mph - N/A   Clear
10:15 PM 78.8 °F 38.3 °F 23% 30.12 in 10.0 mi North 6.9 mph - N/A   Clear
10:35 PM 77.7 °F 36.1 °F 22% 30.12 in 10.0 mi NE 9.2 mph - N/A   Clear
10:55 PM 78.1 °F 34.7 °F 21% 30.13 in 10.0 mi East 8.1 mph - N/A   Clear
11:15 PM 76.6 °F 35.6 °F 23% 30.13 in 7.0 mi ENE 8.1 mph - N/A   Clear
11:35 PM 77.0 °F 36.7 °F 23% 30.14 in 10.0 mi East 4.6 mph - N/A   Clear
11:55 PM 75.2 °F 36.9 °F 25% 30.15 in 10.0 mi NE 8.1 mph - N/A   Clear